Temp
25 25 25 25 25 25 25 25 25 23 22 22 21 21 21 21 21 21 20 20 19 19 18 18 18 18 17 17 17 17 17 16
27 26 26 25 24 24 24 24 24 24 23 22 22 22 22 22 22 21 20 20 19 19 18 18 18 18 18 17 17 16 16 16
27 27 27 27 26 26 24 24 24 24 24 24 22 22 22 22 22 22 21 20 19 18 18 18 18 17 17 17 16 16 16 15
28 28 28 28 27 27 27 28 27 26 26 24 23 22 21 21 22 22 22 21 20 19 18 18 17 17 17 17 16 16 16 15
27 28 27 27 28 28 28 27 27 27 26 26 25 26 25 24 24 23 22 22 21 20 19 18 17 17 17 17 16 16 15 15
27 28 28 27 27 27 27 27 26 26 26 27 26 25 25 24 23 22 22 21 20 19 19 18 17 17 17 16 16 16 16 15
27 27 27 27 27 27 27 27 26 26 26 26 26 26 25 24 23 22 22 21 20 19 18 18 17 17 16 16 16 16 15 15
27 27 26 26 26 27 27 26 25 25 26 26 26 25 24 24 23 22 22 21 20 19 19 18 17 17 17 17 16 16 15 15
26 26 26 26 26 27 27 27 26 26 26 26 25 24 23 23 23 22 20 20 19 18 18 17 17 17 16 16 16 16 16 15
25 25 25 26 27 26 27 26 26 26 26 25 25 24 23 23 22 21 20 19 18 17 17 17 16 16 16 16 16 15 15 15
23 24 25 26 26 26 26 26 26 26 26 25 24 24 22 22 21 20 19 18 18 17 17 17 16 16 16 16 16 15 15 15
23 24 25 24 24 25 26 25 25 24 24 24 23 22 21 21 20 20 19 18 17 17 17 16 16 16 16 15 15 15 15 15
22 23 23 22 22 22 24 24 23 23 23 23 22 22 22 21 20 19 19 18 17 16 16 16 16 16 15 15 15 15 14 14
22 22 22 20 20 21 21 21 22 22 22 22 22 22 21 21 20 19 18 17 15 16 16 15 15 15 14 14 14 13 13 13
21 21 22 21 20 18 19 19 20 21 22 22 22 22 21 20 20 19 18 17 16 15 15 14 14 14 14 13 13 13 13 13
20 21 23 22 21 20 18 19 20 21 21 22 22 21 21 19 19 19 17 16 15 14 14 14 14 14 14 14 12 12 11 11
18 19 21 23 21 20 20 20 20 20 20 21 21 20 20 19 19 16 15 15 15 14 14 13 13 12 12 12 12 11 10 9
17 17 18 20 21 22 22 20 18 18 19 19 18 19 20 19 18 15 14 14 15 12 12 12 12 11 11 10 10 10 9 8
17 17 18 18 19 19 21 21 20 18 18 18 18 18 18 17 16 14 14 13 13 12 11 11 11 10 9 9 9 8 8 8
Height
1482 1484 1485 1490 1494 1496 1499 1501 1503 1506 1510 1512 1515 1517 1520 1522 1525 1528 1531 1534 1537 1540 1542 1545 1549 1551 1553 1554 1556 1559 1560 1563
1473 1476 1477 1479 1485 1488 1491 1494 1497 1499 1501 1504 1507 1507 1511 1514 1518 1521 1524 1527 1530 1534 1536 1539 1543 1545 1547 1550 1552 1554 1555 1557
1464 1466 1468 1468 1472 1478 1481 1484 1487 1490 1493 1496 1499 1502 1505 1509 1511 1514 1517 1519 1523 1527 1530 1532 1535 1539 1541 1544 1546 1548 1549 1552
1456 1458 1459 1461 1464 1468 1472 1475 1478 1482 1485 1488 1492 1496 1499 1502 1503 1506 1508 1512 1516 1519 1523 1525 1528 1531 1533 1536 1539 1541 1543 1546
1447 1451 1454 1456 1459 1461 1464 1468 1471 1475 1478 1480 1483 1486 1488 1491 1494 1498 1501 1505 1509 1513 1516 1518 1520 1523 1525 1528 1531 1534 1537 1538
1438 1442 1446 1451 1455 1456 1458 1461 1464 1466 1469 1472 1475 1478 1482 1484 1488 1493 1495 1499 1503 1507 1510 1512 1514 1516 1518 1521 1524 1526 1528 1531
1432 1436 1440 1444 1447 1449 1451 1452 1453 1457 1460 1464 1467 1471 1475 1478 1482 1485 1488 1492 1496 1499 1502 1505 1507 1509 1510 1513 1515 1517 1520 1522
1427 1430 1434 1437 1439 1440 1440 1440 1441 1446 1451 1455 1459 1464 1470 1474 1476 1479 1482 1486 1489 1492 1495 1497 1499 1501 1504 1506 1508 1509 1512 1514
1420 1423 1427 1429 1430 1430 1431 1430 1431 1436 1442 1447 1452 1458 1463 1466 1470 1473 1476 1480 1484 1487 1489 1490 1492 1495 1497 1499 1500 1502 1504 1506
1416 1419 1418 1419 1419 1421 1422 1422 1424 1429 1435 1441 1446 1452 1455 1459 1463 1467 1470 1474 1477 1480 1483 1485 1486 1488 1490 1492 1494 1495 1496 1498
1412 1412 1410 1408 1406 1410 1413 1414 1418 1423 1429 1435 1440 1445 1449 1454 1457 1460 1463 1466 1469 1473 1476 1478 1480 1482 1484 1486 1487 1488 1489 1491
1406 1405 1403 1398 1396 1399 1404 1407 1411 1418 1424 1430 1435 1439 1443 1447 1450 1454 1457 1460 1463 1466 1469 1472 1474 1476 1478 1479 1480 1481 1483 1485
1401 1402 1399 1392 1391 1392 1396 1400 1406 1413 1419 1424 1429 1434 1438 1441 1445 1448 1451 1454 1457 1460 1463 1465 1468 1469 1471 1472 1474 1476 1477 1479
1397 1398 1394 1388 1387 1386 1390 1396 1402 1409 1414 1419 1423 1428 1432 1435 1439 1442 1446 1449 1452 1454 1456 1458 1461 1464 1465 1467 1468 1470 1471 1472
1392 1391 1389 1385 1383 1384 1388 1395 1400 1405 1410 1414 1418 1422 1425 1429 1432 1436 1439 1443 1446 1448 1451 1454 1457 1458 1460 1461 1462 1464 1465 1466
1388 1387 1386 1384 1382 1383 1389 1393 1398 1401 1405 1408 1411 1416 1419 1423 1426 1429 1432 1436 1439 1443 1446 1448 1450 1452 1453 1454 1456 1458 1459 1459
1384 1383 1383 1381 1382 1385 1387 1389 1392 1395 1399 1402 1406 1410 1413 1416 1421 1423 1425 1428 1431 1436 1439 1442 1444 1445 1446 1448 1449 1452 1454 1458
1378 1380 1380 1381 1381 1383 1383 1387 1389 1392 1394 1398 1402 1405 1406 1410 1413 1416 1420 1422 1423 1429 1433 1437 1440 1442 1443 1444 1445 1447 1451 1454
1374 1376 1376 1375 1374 1376 1377 1378 1380 1384 1387 1391 1396 1400 1402 1405 1406 1410 1415 1418 1418 1422 1428 1432 1436 1439 1441 1442 1445 1446 1450 1451
Wind_Speed
30 34 42 41 42 42 40 38 37 37 39 40 40 40 40 40 38 38 37 38 37 36 36 35 33 32 32 31 29 28 27 24
29 33 36 43 46 48 47 46 45 43 41 43 44 44 43 42 41 41 41 40 40 39 39 38 37 36 36 33 31 30 29 26
26 29 32 40 39 40 47 46 48 45 43 41 43 43 43 42 42 42 42 42 41 41 40 40 40 39 39 37 35 34 32 29
27 28 26 29 32 35 36 32 36 38 35 38 40 42 43 44 45 43 43 41 40 39 39 39 39 40 41 41 39 38 37 33
28 28 25 27 29 29 30 33 35 36 36 38 38 36 40 41 43 43 43 41 39 37 37 37 38 37 38 39 39 40 39 39
29 31 30 29 29 32 34 34 37 39 39 40 41 42 40 42 41 38 38 38 36 34 34 35 37 38 37 36 37 38 40 41
23 27 28 28 23 24 26 34 43 43 42 41 42 43 41 38 38 37 36 34 32 31 32 32 34 38 39 38 38 40 39 41
26 23 23 24 24 25 26 30 39 45 45 44 42 43 39 34 34 35 33 32 30 28 27 29 32 36 36 37 40 41 41 39
29 24 24 28 28 28 29 28 34 43 43 39 39 38 34 32 29 30 31 30 27 25 24 25 25 28 29 32 34 37 39 39
28 25 25 32 37 36 32 31 35 39 39 35 33 33 33 29 26 26 27 26 24 23 24 23 23 24 26 28 30 32 33 36
23 28 32 41 36 35 34 29 30 33 35 30 30 31 28 27 25 26 25 23 22 22 22 22 22 23 25 26 27 29 30 32
20 26 35 35 27 27 29 28 31 33 30 30 31 29 27 26 24 23 21 21 21 21 21 22 25 23 25 27 27 29 29 29
21 24 30 23 24 26 30 32 32 33 33 32 29 28 27 25 22 21 20 21 21 21 22 24 25 23 25 24 24 25 25 28
34 31 29 23 20 25 33 35 36 34 33 31 29 29 26 23 21 19 19 19 20 22 24 24 22 22 21 24 24 26 27 28
30 24 25 20 17 22 33 35 35 35 33 30 28 26 24 21 19 19 18 18 17 15 15 16 19 20 22 23 24 24 26 28
34 24 24 22 17 20 31 33 35 35 33 30 27 26 24 23 21 20 19 18 16 16 16 17 18 19 20 19 21 22 23 23
32 33 29 22 20 23 31 37 39 37 34 32 29 29 26 24 23 22 20 18 16 16 16 17 18 16 18 19 22 24 22 18
30 26 25 31 28 24 31 40 40 39 38 36 33 33 29 27 24 21 19 16 14 13 12 14 16 18 22 23 22 22 18 17
40 36 31 27 30 33 33 35 49 46 43 40 36 34 30 29 24 22 20 18 13 14 14 15 18 20 21 21 19 19 20 20
Wind_Direction
249 245 246 242 241 241 242 245 248 243 239 239 239 238 238 238 238 238 237 238 237 238 239 240 238 240 240 239 240 239 242 249
265 256 252 248 243 243 245 246 249 248 243 240 240 241 239 239 240 241 241 240 241 241 242 243 242 242 244 244 245 243 242 243
257 254 253 251 240 239 244 247 245 249 249 246 241 241 242 243 243 243 243 243 243 243 245 247 247 245 245 245 243 245 246 241
246 249 245 231 238 240 240 240 238 240 242 240 237 238 242 243 243 243 244 245 246 246 245 248 251 250 247 248 246 244 246 244
235 237 239 223 232 240 242 238 236 234 236 239 238 239 237 240 242 244 245 246 245 246 246 247 250 254 251 248 250 247 245 246
232 226 236 233 238 245 246 243 236 235 236 238 239 237 242 245 248 250 250 250 249 248 248 247 249 252 255 253 251 249 246 247
235 234 237 237 237 249 250 251 240 234 233 236 238 239 241 246 250 251 253 256 257 257 254 251 252 252 254 256 255 254 249 246
243 242 245 251 261 267 270 266 238 232 232 235 238 239 241 246 247 249 253 257 259 261 262 261 258 258 260 260 258 256 256 253
251 262 273 276 269 269 271 266 234 228 231 233 235 237 240 239 241 246 251 254 257 258 262 267 266 268 265 264 262 262 257 257
266 271 290 285 269 265 266 258 233 231 229 228 228 230 229 235 241 245 250 251 251 250 255 262 265 261 267 265 264 263 260 260
269 285 286 298 267 252 258 243 229 227 224 221 219 219 227 235 240 243 244 247 245 241 244 251 256 261 262 259 264 261 261 263
296 310 303 288 252 242 249 225 218 217 212 209 213 220 226 231 234 236 236 239 238 237 244 256 253 261 265 258 261 260 262 259
290 301 319 296 257 243 234 215 209 204 204 208 214 218 221 223 227 228 232 237 237 236 243 250 256 261 265 263 265 264 265 262
305 300 313 309 275 246 219 207 201 202 207 208 209 212 214 216 220 224 232 236 239 240 242 248 256 260 268 261 263 266 267 261
295 304 309 308 287 239 211 204 204 205 205 208 209 209 210 211 216 223 229 229 232 234 235 244 257 263 265 263 261 262 254 236
295 302 309 297 276 232 210 208 209 209 211 209 208 208 206 208 212 214 214 214 216 221 229 236 244 253 256 256 249 245 213 204
314 310 299 284 269 238 218 216 214 213 212 210 206 206 203 205 209 203 203 207 212 220 230 243 252 249 250 241 224 206 202 200
308 318 308 294 287 277 249 232 225 222 217 213 210 209 205 205 201 199 202 205 205 217 232 244 234 236 222 200 196 200 204 203
289 292 300 304 301 287 276 257 239 231 226 219 215 214 212 210 201 200 203 205 206 206 227 228 230 218 207 208 210 205 201 196